This demonstration page uses our WeatherBlox Daily Observations layout. Learn more.

Left ArrowRight Arrow

36.17497, -115.13722

Hourly Observations for September 24, 2016

Temp ( °F °C ) Dew Point ( °F °C ) Humidity (%) Winds ( mph kmh ) Pressure ( in mb ) Visibility ( mi km ) Precip ( " mm )
12:53 am 00:53 Clear 69 20.6 21 -6.1 16 16 N 9 15 30.01 1016 10 16.0934 0 0
1:53 am 01:53 Clear 69 20.6 23 -5 17 17 N 13 20 30.02 1017 10 16.0934 0 0
2:53 am 02:53 Clear 70 21.1 23 -5 17 17 N 17 28 30.02 1017 10 16.0934 0 0
3:53 am 03:53 Clear 68 20 24 -4.4 19 19 NNE 8 13 30.03 1017 10 16.0934 0 0
4:53 am 04:53 Clear 68 20 25 -3.9 20 20 NNE 5 7 30.06 1018 10 16.0934 0 0
5:53 am 05:53 Clear 68 20 25 -3.9 20 20 N 6 9 30.08 1019 10 16.0934 0 0
6:53 am 06:53 Sunny 66 18.9 28 -2.2 24 24 Calm 30.11 1020 10 16.0934 0 0
7:53 am 07:53 Sunny 68 20 26 -3.3 21 21 Calm 30.12 1020 10 16.0934 0 0
8:53 am 08:53 Sunny 72 22.2 27 -2.8 19 19 VRB 5 7 30.12 1020 10 16.0934 0 0
9:53 am 09:53 Sunny 76 24.4 28 -2.2 17 17 ENE 13 20 30.12 1020 10 16.0934 0 0
10:12 am 10:12 Sunny 77 25 28 -2 17 17 NNE 10 17 30 1016 10 16.0934 0 0
10:53 am 10:53 Sunny 79 26.1 28 -2.2 15 15 ENE 10 17 30.12 1020 10 16.0934 0 0
11:53 am 11:53 Sunny 79 26.1 29 -1.7 16 16 VRB 7 11 30.11 1020 10 16.0934 0 0
12:53 pm 12:53 Sunny 82 27.8 30 -1.1 15 15 WNW 5 7 30.09 1019 10 16.0934 0 0
1:53 pm 13:53 Sunny 84 28.9 30 -1.1 14 14 E 7 11 30.06 1018 10 16.0934 0 0
2:53 pm 14:53 Sunny 84 28.9 29 -1.7 13 13 SE 7 11 30.05 1018 10 16.0934 0 0
3:53 pm 15:53 Sunny 86 30 28 -2.2 12 12 Calm 30.04 1017 10 16.0934 0 0
4:53 pm 16:53 Sunny 88 31.1 24 -4.4 10 10 NW 10 17 30.03 1017 10 16.0934 0 0
5:53 pm 17:53 Sunny 86 30 23 -5 10 10 VRB 3 6 30.03 1017 10 16.0934 0 0
6:53 pm 18:53 Clear 81 27.2 29 -1.7 15 15 S 6 9 30.05 1018 10 16.0934 0 0
7:53 pm 19:53 Clear 80 26.7 30 -1.1 16 16 S 3 6 30.06 1018 10 16.0934 0 0
8:53 pm 20:53 Clear 76 24.4 31 -0.6 19 19 NNW 6 9 30.09 1019 10 16.0934 0 0
9:53 pm 21:53 Clear 73 22.8 32 0 22 22 N 5 7 30.1 1019 10 16.0934 0 0
10:53 pm 22:53 Clear 71 21.7 29 -1.7 21 21 N 7 11 30.12 1020 10 16.0934 0 0
11:53 pm 23:53 Clear 72 22.2 27 -2.8 19 19 Calm 30.13 1020 10 16.0934 0 0

Powered by AerisWeather